This is the latest recevied weather packets stored in our database for station/object K0WOI. If no packets are shown the sender has not sent any weather packets the latest 10 day(s).
| Time | Temp. | Humidity | Pressure | Rain* | Wind** | Luminosity | Snow |
|---|---|---|---|---|---|---|---|
| 1777870519 | 9.44° C | 78% | 1005.9 hPa | 0 mm | - | 0 W/m² | - |
| 1777870215 | 9.44° C | 77% | 1006.1 hPa | 0 mm | - | 0 W/m² | - |
| 1777869913 | 9.44° C | 75% | 1005.9 hPa | 0 mm | - | 0 W/m² | - |
| 1777869609 | 10° C | 78% | 1006.2 hPa | 0 mm | - | 0 W/m² | - |
| 1777869306 | 10° C | 78% | 1005.9 hPa | 0 mm | - | 0 W/m² | - |
| 1777869004 | 10° C | 77% | 1006 hPa | 0 mm | - | 0 W/m² | - |
| 1777868701 | 10.56° C | 78% | 1005.9 hPa | 0 mm | - | 0 W/m² | - |
| 1777868397 | 10.56° C | 76% | 1006.1 hPa | 0 mm | - | 0 W/m² | - |
| 1777868093 | 10.56° C | 75% | 1006.1 hPa | 0 mm | - | 0 W/m² | - |
| 1777867789 | 10.56° C | 74% | 1006.1 hPa | 0 mm | - | 0 W/m² | - |
| 1777867487 | 11.11° C | 71% | 1006.1 hPa | 0 mm | - | 0 W/m² | - |
| 1777867183 | 11.11° C | 70% | 1006.1 hPa | 0 mm | - | 0 W/m² | - |
| 1777866881 | 11.67° C | 69% | 1006.4 hPa | 0 mm | - | 0 W/m² | - |
| 1777866577 | 12.22° C | 67% | 1006.4 hPa | 0 mm | - | 0 W/m² | - |
| 1777866275 | 12.78° C | 64% | 1006.5 hPa | 0 mm | - | 0 W/m² | - |
| 1777865972 | 12.78° C | 63% | 1006.5 hPa | 0 mm | - | 0 W/m² | - |
| 1777865669 | 13.33° C | 61% | 1006.9 hPa | 0 mm | - | 0 W/m² | - |
| 1777865366 | 14.44° C | 54% | 1006.7 hPa | 0 mm | - | 0 W/m² | - |
| 1777865063 | 15° C | 51% | 1006.9 hPa | 0 mm | - | 0 W/m² | - |
| 1777864760 | 15.56° C | 43% | 1006.9 hPa | 0 mm | - | 0 W/m² | - |
| 1777864457 | 15.56° C | 43% | 1006.8 hPa | 0 mm | - | 0 W/m² | - |
| 1777864154 | 15° C | 44% | 1006.9 hPa | 0 mm | - | 0 W/m² | - |
| 1777863851 | 15° C | 44% | 1006.8 hPa | 0 mm | - | 0 W/m² | - |
| 1777863546 | 14.44° C | 44% | 1006.9 hPa | 0 mm | - | 0 W/m² | - |
| 1777863244 | 15° C | 45% | 1007.1 hPa | 0 mm | - | 0 W/m² | - |
* Rain latest hour (hover to see other rain measurements)
** Current wind speed in m/s (hover to see current wind gust speed)